Date String (YYYY-MM-DD hh:mm:ss) UTC,Instrument flags,absolute air pressure of the measurement (hPa),sample flow rate (lpm),inlet stack bypass flow (lpm),air temperature of the measurement (°C),ambient temperature measured by the external sensor (°C),aerosol sample conditioner tube jacket temperature (°C),OPC LED temperature (°C),internal box temperature (°C),relative humidity of the measurement (%),span deviation,mass concentration of particles derived from Lorenz-Mie calculation of OPC scattering (μg/m³),mass concentration of particles derived from Lorenz-Mie calculation of OPC scattering (μg/m³),mass concentration of particles derived from Lorenz-Mie calculation of OPC scattering (μg/m³)
DateTimeUTC,F1_M11,P_M11,Q1_M11,Q2_M11,T1_M11,T2_M11,T3_M11,T4_M11,T5_M11,U1_M11,ZSPAN_M11,X0_M11,X2_M11,X1_M11
2023-07-15 11:00:00,SystemResetWarning,0835.7,5.01,000.00,029.6,025.6,000.0,038.2,030.7,30.4,0000.0,0014.56,0006.38,0005.64
2023-07-15 11:01:00,SystemResetWarning,0835.5,4.99,000.00,029.6,026.0,000.0,038.2,030.8,30.5,0000.0,0014.54,0006.42,0005.65
2023-07-15 11:02:00,SystemResetWarning,0835.6,5.00,000.00,029.6,026.4,000.0,038.2,030.8,30.5,-000.5,0014.72,0006.43,0005.65
2023-07-15 11:03:00,SystemResetWarning,0835.6,5.01,000.00,029.5,026.8,000.0,038.2,030.9,30.6,-000.4,0015.26,0006.47,0005.65
2023-07-15 11:04:00,SystemResetWarning,0835.6,5.00,000.00,029.5,027.1,000.0,038.2,030.9,30.6,-002.4,0014.63,0006.46,0005.65
2023-07-15 11:05:00,SystemResetWarning,0835.6,5.00,000.00,029.5,027.3,000.0,038.2,030.9,30.6,-002.5,0014.19,0006.48,0005.65
2023-07-15 11:06:00,SystemResetWarning,0835.6,5.00,000.00,029.5,027.5,000.0,038.2,031.0,30.6,-002.0,0013.90,0006.49,0005.65
2023-07-15 11:07:00,SystemResetWarning,0835.6,4.99,000.00,029.5,027.6,000.0,038.2,031.0,30.6,-001.8,0013.58,0006.46,0005.65
2023-07-15 11:08:00,SystemResetWarning,0835.6,4.99,000.00,029.5,027.8,000.0,038.2,031.1,30.6,-001.7,0013.58,0006.48,0005.64
2023-07-15 11:09:00,SystemResetWarning,0835.6,5.00,000.00,029.6,027.9,000.0,038.2,031.1,30.6,-001.6,0013.18,0006.50,0005.63
2023-07-15 11:10:00,SystemResetWarning,0835.7,5.00,000.00,029.6,028.0,000.0,038.1,031.1,30.9,-002.0,0012.93,0006.53,0005.65
2023-07-15 11:11:00,SystemResetWarning,0835.8,5.00,000.00,029.6,028.1,000.0,038.1,031.1,30.8,-002.6,0012.79,0006.53,0005.67
2023-07-15 11:12:00,SystemResetWarning,0835.8,5.01,000.00,029.6,028.1,000.0,038.2,031.1,30.8,-001.6,0012.74,0006.56,0005.68
2023-07-15 11:13:00,SystemResetWarning,0835.8,5.00,000.00,029.6,028.2,000.0,038.2,031.2,30.8,0000.0,0012.41,0006.55,0005.69
2023-07-15 11:14:00,SystemResetWarning,0835.8,5.00,000.00,029.6,028.2,000.0,038.2,031.2,30.7,0000.0,0011.56,0006.59,0005.70
2023-07-15 11:15:00,SystemResetWarning,0835.8,4.99,000.00,029.7,028.2,000.0,038.2,031.2,30.6,0000.0,0011.63,0006.63,0005.69
2023-07-15 11:16:00,SystemResetWarning,0835.8,4.99,000.00,029.7,028.3,000.0,038.2,031.2,30.5,0000.0,0011.52,0006.65,0005.70
2023-07-15 11:17:00,SystemResetWarning,0835.8,5.00,000.00,029.7,028.3,000.0,038.2,031.3,30.3,0000.0,0011.56,0006.65,0005.70
2023-07-15 11:18:00,SystemResetWarning,0835.8,5.01,000.00,029.7,028.3,000.0,038.2,031.3,30.2,0000.0,0011.83,0006.69,0005.72
2023-07-15 11:19:00,SystemResetWarning,0835.8,5.01,000.00,029.7,028.4,000.0,038.2,031.3,30.3,-000.5,0011.92,0006.66,0005.73
2023-07-15 11:20:00,SystemResetWarning,0835.8,5.01,000.00,029.7,028.4,000.0,038.2,031.3,30.2,-002.5,0012.23,0006.68,0005.74
2023-07-15 11:21:00,SystemResetWarning,0835.8,4.99,000.00,029.8,028.4,000.0,038.2,031.3,30.1,-000.2,0012.30,0006.63,0005.73
2023-07-15 11:22:00,SystemResetWarning,0835.8,4.99,000.00,029.8,028.4,000.0,038.3,031.3,30.0,0000.0,0013.12,0006.69,0005.74
2023-07-15 11:23:00,SystemResetWarning,0835.8,5.01,000.00,029.8,028.4,000.0,038.3,031.4,29.9,-000.6,0012.86,0006.67,0005.73
2023-07-15 11:24:00,SystemResetWarning,0835.9,5.00,000.00,029.8,028.5,000.0,038.3,031.4,29.9,-000.2,0012.98,0006.68,0005.73
2023-07-15 11:25:00,SystemResetWarning,0835.9,5.01,000.00,029.8,028.5,000.0,038.3,031.4,29.9,-000.1,0013.28,0006.67,0005.74
2023-07-15 11:26:00,SystemResetWarning,0835.9,5.00,000.00,029.8,028.5,000.0,038.3,031.4,29.9,-000.6,0013.81,0006.67,0005.74
2023-07-15 11:27:00,SystemResetWarning,0835.9,5.00,000.00,029.9,028.5,000.0,038.3,031.4,29.9,-000.9,0013.60,0006.62,0005.73
2023-07-15 11:28:00,SystemResetWarning,0835.9,4.99,000.00,029.9,028.5,000.0,038.3,031.4,29.9,-001.0,0013.32,0006.62,0005.73
2023-07-15 11:29:00,SystemResetWarning,0835.9,4.99,000.00,029.9,028.5,000.0,038.4,031.4,29.9,-001.4,0012.97,0006.60,0005.73
2023-07-15 11:30:00,SystemResetWarning,0835.9,5.00,000.00,029.9,028.5,000.0,038.4,031.4,29.9,-000.6,0012.95,0006.60,0005.74
2023-07-15 11:31:00,SystemResetWarning,0835.9,5.00,000.00,029.9,028.6,000.0,038.4,031.4,29.8,-000.8,0012.53,0006.58,0005.74
2023-07-15 11:32:00,SystemResetWarning,0835.9,5.00,000.00,029.9,028.6,000.0,038.4,031.5,29.8,-000.8,0013.00,0006.61,0005.74
2023-07-15 11:33:00,SystemResetWarning,0835.9,5.00,000.00,029.9,028.6,000.0,038.4,031.5,29.8,-001.3,0012.35,0006.60,0005.74
2023-07-15 11:34:00,SystemResetWarning,0836.0,5.01,000.00,029.9,028.6,000.0,038.4,031.5,29.7,-001.2,0012.13,0006.55,0005.74
2023-07-15 11:35:00,SystemResetWarning,0836.0,5.01,000.00,030.0,028.6,000.0,038.4,031.5,29.6,-001.8,0012.00,0006.55,0005.76
2023-07-15 11:36:00,SystemResetWarning,0836.0,5.00,000.00,030.0,028.6,000.0,038.4,031.5,29.7,-000.9,0011.60,0006.54,0005.77
2023-07-15 11:37:00,SystemResetWarning,0836.1,4.98,000.00,030.0,028.6,000.0,038.5,031.5,29.7,0000.0,0011.05,0006.53,0005.77
2023-07-15 11:38:00,SystemResetWarning,0836.1,5.01,000.00,030.0,028.7,000.0,038.5,031.5,29.7,0000.0,0011.03,0006.55,0005.77
2023-07-15 11:39:00,SystemResetWarning,0836.1,5.00,000.00,030.0,028.7,000.0,038.5,031.5,29.7,0000.0,0011.07,0006.56,0005.78
2023-07-15 11:40:00,SystemResetWarning,0836.1,5.00,000.00,030.0,028.7,000.0,038.5,031.5,29.6,0000.0,0011.05,0006.57,0005.79
2023-07-15 11:41:00,SystemResetWarning,0836.1,5.00,000.00,030.0,028.7,000.0,038.5,031.5,29.5,0000.0,0011.62,0006.57,0005.78
2023-07-15 11:42:00,SystemResetWarning,0836.1,5.01,000.00,030.0,028.7,000.0,038.5,031.5,29.5,0000.0,0011.60,0006.60,0005.78
2023-07-15 11:43:00,SystemResetWarning,0836.1,4.98,000.00,030.0,028.7,000.0,038.5,031.6,29.4,0000.0,0011.21,0006.61,0005.79
2023-07-15 11:44:00,SystemResetWarning,0836.1,4.99,000.00,030.1,028.7,000.0,038.5,031.6,29.6,0000.0,0011.23,0006.62,0005.79
2023-07-15 11:45:00,SystemResetWarning,0836.1,5.01,000.00,030.1,028.7,000.0,038.6,031.6,29.6,0000.0,0012.01,0006.61,0005.79
2023-07-15 11:46:00,SystemResetWarning,0836.1,5.01,000.00,030.1,028.7,000.0,038.6,031.6,29.5,0000.0,0012.62,0006.63,0005.77
2023-07-15 11:47:00,SystemResetWarning,0836.1,5.01,000.00,030.1,028.7,000.0,038.6,031.6,29.7,0000.0,0013.80,0006.67,0005.76
2023-07-15 11:48:00,SystemResetWarning,0836.1,4.98,000.00,030.1,028.7,000.0,038.6,031.6,29.5,0000.0,0013.69,0006.64,0005.76
2023-07-15 11:49:00,SystemResetWarning,0836.1,5.00,000.00,030.1,028.7,000.0,038.6,031.6,29.3,0000.0,0013.60,0006.58,0005.77
2023-07-15 11:50:00,SystemResetWarning,0836.1,5.00,000.00,030.1,027.9,000.0,038.5,031.6,29.5,0000.0,0013.66,0006.58,0005.76
2023-07-15 11:51:00,SystemResetWarning,0836.1,5.00,000.00,030.0,025.9,000.0,038.4,031.3,29.5,0000.0,0013.69,0006.58,0005.75
2023-07-15 11:52:00,SystemResetWarning,0836.1,5.01,000.00,029.9,025.1,000.0,038.3,030.9,29.5,0000.0,0013.22,0006.57,0005.74
2023-07-15 11:53:00,SystemResetWarning,0836.1,5.01,000.00,029.7,025.2,000.0,038.3,030.6,29.9,0000.0,0013.17,0006.52,0005.73
2023-07-15 11:54:00,SystemResetWarning,0836.1,4.99,000.00,029.6,025.6,000.0,038.3,030.7,30.4,0000.1,0013.18,0006.48,0005.72
2023-07-15 11:55:00,SystemResetWarning,0836.1,5.00,000.00,029.6,026.0,000.0,038.3,030.7,30.5,0000.0,0013.14,0006.47,0005.72
2023-07-15 11:56:00,SystemResetWarning,0836.1,5.01,000.00,029.6,026.4,000.0,038.3,030.8,30.7,0000.0,0012.49,0006.54,0005.72
2023-07-15 11:57:00,SystemResetWarning,0836.2,5.01,000.00,029.5,026.8,000.0,038.2,030.9,30.6,0000.0,0012.95,0006.57,0005.73
2023-07-15 11:58:00,SystemResetWarning,0836.2,5.00,000.00,029.5,027.1,000.0,038.2,030.9,30.9,0000.0,0011.86,0006.53,0005.73
2023-07-15 11:59:00,SystemResetWarning,0836.1,5.00,000.00,029.5,027.3,000.0,038.2,031.0,31.0,0000.0,0012.52,0006.54,0005.72
